| time (UTC) | temp C | wind direction | speed KPH | gust KPH | rain 1hr cm | rain 24hr cm | rain mn cm | humidity % | barometer mb |
| 20260905183007 | 13 | 357 | 4.8 | 12.9 | 0.00 | 0.33 | 0.33 | 34 | 1018.9 |
| 20260905181507 | 14 | 10 | 3.2 | 8.0 | 0.00 | 0.33 | 0.33 | 34 | 1019.0 |
| 20260905180007 | 14 | 9 | 3.2 | 8.0 | 0.00 | 0.33 | 0.33 | 34 | 1018.8 |
| 20260905171507 | 15 | 11 | 6.4 | 19.3 | 0.00 | 0.33 | 0.33 | 33 | 1018.1 |
| 20260905170006 | 16 | 6 | 4.8 | 11.3 | 0.00 | 0.33 | 0.33 | 34 | 1018.3 |
| 20260905164507 | 16 | 316 | 6.4 | 9.7 | 0.00 | 0.33 | 0.33 | 34 | 1017.8 |
| 20260905163007 | 16 | 240 | 4.8 | 12.9 | 0.00 | 0.33 | 0.33 | 34 | 1017.7 |
| 20260905161506 | 16 | 335 | 6.4 | 17.7 | 0.00 | 0.33 | 0.33 | 33 | 1017.8 |
| 20260905153007 | 17 | 72 | 8.0 | 19.3 | 0.00 | 0.33 | 0.33 | 29 | 1017.5 |
| 20260905151506 | 17 | 251 | 6.4 | 17.7 | 0.00 | 0.33 | 0.33 | 27 | 1017.5 |
| 20260905150007 | 17 | 327 | 8.0 | 17.7 | 0.00 | 0.33 | 0.33 | 28 | 1017.6 |
| 20260905144507 | 17 | 280 | 6.4 | 16.1 | 0.00 | 0.33 | 0.33 | 28 | 1017.5 |
| 20260905143007 | 17 | 290 | 12.9 | 33.8 | 0.00 | 0.33 | 0.33 | 27 | 1017.5 |
| 20260905140007 | 18 | 232 | 12.9 | 27.4 | 0.00 | 0.33 | 0.33 | 26 | 1017.7 |
| 20260905134506 | 18 | 254 | 9.7 | 22.5 | 0.00 | 0.33 | 0.33 | 25 | 1017.7 |
| 20260905133006 | 18 | 298 | 12.9 | 35.4 | 0.00 | 0.33 | 0.33 | 26 | 1017.6 |
| 20260905131506 | 17 | 284 | 14.5 | 27.4 | 0.00 | 0.33 | 0.33 | 26 | 1017.8 |
| 20260905130006 | 18 | 89 | 8.0 | 20.9 | 0.00 | 0.33 | 0.33 | 26 | 1017.9 |
| 20260905124506 | 17 | 270 | 11.3 | 27.4 | 0.00 | 0.33 | 0.33 | 26 | 1017.8 |
| 20260905123007 | 17 | 352 | 9.7 | 24.1 | 0.00 | 0.33 | 0.33 | 25 | 1017.8 |
| 20260905121506 | 17 | 302 | 8.0 | 19.3 | 0.00 | 0.33 | 0.33 | 27 | 1018.0 |
| 20260905120006 | 18 | 23 | 8.0 | 17.7 | 0.00 | 0.33 | 0.33 | 29 | 1017.7 |
| 20260905114506 | 17 | 76 | 8.0 | 17.7 | 0.00 | 0.33 | 0.33 | 29 | 1017.7 |
| 20260905113007 | 17 | 354 | 11.3 | 27.4 | 0.00 | 0.33 | 0.33 | 27 | 1017.9 |
| 20260905110006 | 16 | 276 | 8.0 | 24.1 | 0.00 | 0.33 | 0.33 | 31 | 1017.8 |
| 20260905104506 | 16 | 344 | 9.7 | 24.1 | 0.00 | 0.33 | 0.33 | 31 | 1017.7 |
| 20260905103006 | 16 | 250 | 12.9 | 24.1 | 0.00 | 0.33 | 0.33 | 34 | 1017.7 |
| 20260905101505 | 16 | 264 | 12.9 | 24.1 | 0.00 | 0.33 | 0.33 | 35 | 1017.8 |
| 20260905093005 | 14 | 261 | 6.4 | 17.7 | 0.03 | 0.33 | 0.33 | 45 | 1017.9 |
| 20260905091506 | 14 | 286 | 8.0 | 17.7 | 0.03 | 0.33 | 0.33 | 46 | 1017.9 |
| 20260905090005 | 13 | 305 | 8.0 | 16.1 | 0.03 | 0.33 | 0.33 | 51 | 1017.8 |
| 20260905084505 | 13 | 222 | 9.7 | 25.7 | 0.03 | 0.33 | 0.33 | 53 | 1017.5 |
| 20260905083006 | 12 | 297 | 6.4 | 12.9 | 0.00 | 0.30 | 0.30 | 61 | 1017.5 |
| 20260905081506 | 12 | 130 | 6.4 | 12.9 | 0.00 | 0.30 | 0.30 | 63 | 1017.6 |
| 20260905080006 | 12 | 35 | 6.4 | 14.5 | 0.00 | 0.30 | 0.30 | 64 | 1017.4 |
| 20260905073006 | 11 | 19 | 4.8 | 9.7 | 0.00 | 0.30 | 0.30 | 71 | 1017.0 |
| 20260905071505 | 11 | 243 | 4.8 | 9.7 | 0.00 | 0.30 | 0.30 | 75 | 1016.7 |
| 20260905070006 | 11 | 292 | 8.0 | 20.9 | 0.00 | 0.30 | 0.30 | 75 | 1016.9 |
| 20260905064505 | 10 | 292 | 8.0 | 16.1 | 0.00 | 0.30 | 0.30 | 75 | 1016.9 |
| 20260905063006 | 10 | 263 | 8.0 | 17.7 | 0.00 | 0.30 | 0.30 | 74 | 1017.0 |
| 20260905060005 | 10 | 252 | 6.4 | 12.9 | 0.13 | 0.30 | 0.30 | 71 | 1016.4 |
| 20260905054505 | 10 | 252 | 9.7 | 16.1 | 0.18 | 0.30 | 0.30 | 67 | 1015.5 |
| 20260905053005 | 10 | 284 | 6.4 | 12.9 | 0.20 | 0.30 | 0.30 | 65 | 1016.0 |
| 20260905051505 | 11 | 353 | 6.4 | 11.3 | 0.15 | 0.23 | 0.23 | 62 | 1016.0 |
| 20260905050005 | 11 | 304 | 6.4 | 17.7 | 0.10 | 0.18 | 0.18 | 58 | 1016.1 |
| 20260905044505 | 12 | 2 | 6.4 | 14.5 | 0.03 | 0.13 | 0.13 | 55 | 1016.3 |
| 20260905041505 | 12 | 312 | 4.8 | 12.9 | 0.03 | 0.10 | 0.10 | 61 | 1015.8 |
| 20260905040005 | 12 | 293 | 3.2 | 9.7 | 0.05 | 0.10 | 0.10 | 61 | 1015.2 |
| 20260905034505 | 12 | 336 | 3.2 | 6.4 | 0.05 | 0.10 | 0.10 | 61 | 1015.3 |
| 20260905030005 | 13 | 295 | 3.2 | 9.7 | 0.03 | 0.03 | 0.03 | 56 | 1015.3 |
| 20260905024504 | 13 | 333 | 4.8 | 11.3 | 0.00 | 0.00 | 0.00 | 53 | 1014.8 |
| 20260905023005 | 13 | 333 | 8.0 | 19.3 | 0.00 | 0.00 | 0.00 | 51 | 1014.8 |
| 20260905021505 | 13 | 326 | 4.8 | 16.1 | 0.00 | 0.00 | 0.00 | 48 | 1014.3 |
| 20260905020005 | 13 | 339 | 4.8 | 14.5 | 0.00 | 0.00 | 0.00 | 47 | 1014.4 |
| 20260905013004 | 14 | 344 | 8.0 | 20.9 | 0.00 | 0.00 | 0.00 | 46 | 1014.1 |
| 20260905011504 | 14 | 12 | 8.0 | 17.7 | 0.00 | 0.00 | 0.00 | 45 | 1014.3 |
| 20260905010004 | 15 | 7 | 11.3 | 25.7 | 0.00 | 0.00 | 0.00 | 43 | 1014.1 |
| 20260905003008 | 15 | 329 | 12.9 | 24.1 | 0.00 | 0.00 | 0.00 | 42 | 1013.9 |
| 20260905000008 | 16 | 351 | 14.5 | 32.2 | 0.00 | 0.00 | 0.00 | 36 | 1013.5 |
| 20260904234508 | 18 | 338 | 8.0 | 33.8 | 0.00 | 0.00 | 0.00 | 33 | 1013.0 |
| 20260904233008 | 18 | 314 | 6.4 | 12.9 | 0.00 | 0.00 | 0.00 | 32 | 1012.1 |
| 20260904231508 | 18 | 291 | 8.0 | 12.9 | 0.00 | 0.00 | 0.00 | 32 | 1012.0 |
| 20260904230007 | 18 | 322 | 6.4 | 12.9 | 0.00 | 0.00 | 0.00 | 32 | 1012.0 |
| 20260904224508 | 18 | 317 | 8.0 | 16.1 | 0.00 | 0.00 | 0.00 | 32 | 1011.8 |
| 20260904221507 | 19 | 314 | 4.8 | 9.7 | 0.00 | 0.00 | 0.00 | 31 | 1012.0 |
| 20260904220011 | 19 | 314 | 6.4 | 12.9 | 0.00 | 0.00 | 0.00 | 31 | 1011.8 |
| 20260904214508 | 19 | 329 | 6.4 | 11.3 | 0.00 | 0.00 | 0.00 | 31 | 1011.8 |
| 20260904213008 | 19 | 314 | 6.4 | 14.5 | 0.00 | 0.00 | 0.00 | 31 | 1011.8 |
| 20260904211508 | 19 | 314 | 6.4 | 11.3 | 0.00 | 0.00 | 0.00 | 31 | 1011.9 |
| 20260904210008 | 20 | 323 | 6.4 | 9.7 | 0.00 | 0.00 | 0.00 | 31 | 1011.8 |
| 20260904203008 | 20 | 333 | 6.4 | 12.9 | 0.00 | 0.00 | 0.00 | 31 | 1011.9 |
| 20260904201508 | 20 | 1 | 6.4 | 12.9 | 0.00 | 0.00 | 0.00 | 31 | 1012.0 |
| 20260904200008 | 20 | 343 | 4.8 | 11.3 | 0.00 | 0.00 | 0.00 | 31 | 1012.1 |
| 20260904194507 | 20 | 314 | 4.8 | 6.4 | 0.00 | 0.00 | 0.00 | 31 | 1012.3 |
| 20260904193007 | 20 | 306 | 6.4 | 12.9 | 0.00 | 0.00 | 0.00 | 31 | 1012.1 |
| 20260904191507 | 20 | 307 | 4.8 | 11.3 | 0.00 | 0.00 | 0.00 | 31 | 1012.4 |
| 20260904190007 | 20 | 314 | 4.8 | 8.0 | 0.00 | 0.00 | 0.00 | 31 | 1012.6 |
| 20260904184507 | 20 | 292 | 4.8 | 9.7 | 0.00 | 0.00 | 0.00 | 31 | 1012.6 |